Bellingham, WA
on Monday, February 11, 2013

Monday
Previous Day Next Day
Daily Summary
 ActualAverageRecord
Temperature
Mean Temperature °F 40°F  
Max Temperature 44°F 48°F 63°F (1983)
Min Temperature 39°F 33°F 17°F (1981)
Degree Days
Heating Degree Days 24 25  
Month to date heating degree days 275  
Cooling Degree Days 0 0  
Month to date cooling degree days 0  
Year to date cooling degree days 0  
Moisture
Dew Point 39°F   
Average Humidity 90    
Maximum Humidity 100    
Minimum Humidity 79    
Precipitation
Precipitation 0.05 in 0.11 in 0.72 in (1976)
Month to date precipitation 1.26  
Year to date precipitation 5.93  
Wind
Wind Speed 3 mph   
Max Wind Speed 13 mph   
Max Gust Speed mph   
Visibility 6 miles   
Events Rain   

Key: T is trace of precipitation, MM is missing value
Source: NWS Daily Summary
Time(PST)TemperatureDew PointHumidity Pressure Visibility Wind DirectionWind SpeedGust SpeedPrecipitationEvents Conditions
12:24 AM 39.2°F 37.4°F 93% 30.33 in 5.0 miles Calm Calm - N/A   Overcast
12:53 AM 39.9°F 37.9°F 93% 30.36 in 5.0 miles Calm Calm - N/A   Overcast
1:45 AM 39.2°F 39.2°F 100% 30.34 in 3.0 miles Calm Calm - 0.00 in   Overcast
1:53 AM 39.9°F 39.0°F 97% 30.36 in 3.0 miles Calm Calm - 0.00 in   Overcast
2:01 AM 39.2°F 37.4°F 93% 30.33 in 2.5 miles Calm Calm - N/A   Overcast
2:51 AM 39.2°F 39.2°F 100% 30.33 in 3.0 miles Calm Calm - N/A   Overcast
2:53 AM 39.0°F 39.0°F 100% 30.36 in 3.0 miles Calm Calm - N/A   Overcast
3:22 AM 39.2°F 37.4°F 93% 30.33 in 2.5 miles Calm Calm - N/A   Overcast
3:30 AM 39.2°F 37.4°F 93% 30.32 in 3.0 miles Calm Calm - N/A   Overcast
3:53 AM 39.9°F 37.9°F 93% 30.35 in 4.0 miles Calm Calm - N/A   Overcast
4:53 AM 39.9°F 37.9°F 93% 30.34 in 9.0 miles Calm Calm - N/A   Overcast
5:43 AM 39.2°F 37.4°F 93% 30.32 in 8.0 miles Calm Calm - N/A   Overcast
5:53 AM 39.9°F 37.9°F 93% 30.35 in 8.0 miles Calm Calm - N/A   Overcast
6:53 AM 39.9°F 39.0°F 97% 30.34 in 3.0 miles SE 4.6 mph - N/A   Overcast
7:36 AM 39.2°F 39.2°F 100% 30.31 in 2.5 miles Calm Calm - 0.01 in   Overcast
7:53 AM 39.9°F 39.0°F 97% 30.35 in 2.0 miles Calm Calm - 0.01 in   Overcast
8:15 AM 39.2°F 39.2°F 100% 30.32 in 1.2 miles Calm Calm - 0.01 in Rain Light Rain
8:51 AM 41.0°F 39.2°F 93% 30.32 in 2.0 miles SE 4.6 mph - 0.02 in   Overcast
8:53 AM 41.0°F 39.9°F 96% 30.35 in 1.8 miles SE 4.6 mph - 0.03 in   Overcast
9:04 AM 41.0°F 39.2°F 93% 30.32 in 2.0 miles SE 3.5 mph - N/A   Overcast
9:51 AM 41.0°F 39.2°F 93% 30.33 in 4.0 miles SE 6.9 mph - N/A   Overcast
9:53 AM 42.1°F 39.0°F 89% 30.36 in 4.0 miles SSE 6.9 mph - N/A   Overcast
10:33 AM 42.8°F 39.2°F 87% 30.33 in 2.5 miles SE 9.2 mph - 0.00 in Rain Light Rain
10:48 AM 42.8°F 39.2°F 87% 30.33 in 1.0 miles SE 9.2 mph - 0.01 in   Overcast
10:53 AM 42.1°F 39.9°F 92% 30.36 in 1.0 miles SSE 9.2 mph - 0.01 in   Overcast
11:08 AM 42.8°F 39.2°F 87% 30.33 in 2.5 miles SSE 10.4 mph - N/A   Overcast
11:18 AM 42.8°F 39.2°F 87% 30.33 in 5.0 miles SSE 9.2 mph - N/A   Overcast
11:33 AM 42.8°F 39.2°F 87% 30.33 in 10.0 miles SSE 6.9 mph - N/A   Overcast
11:53 AM 43.0°F 39.0°F 86% 30.36 in 10.0 miles SSE 10.4 mph - N/A   Overcast
12:08 PM 42.8°F 39.2°F 87% 30.32 in 10.0 miles SSE 12.7 mph - N/A   Overcast
12:24 PM 44.6°F 39.2°F 81% 30.32 in 10.0 miles SSE 6.9 mph - N/A   Overcast
12:53 PM 44.1°F 39.0°F 82% 30.35 in 10.0 miles SSE 9.2 mph - N/A   Overcast
1:53 PM 44.1°F 37.9°F 79% 30.35 in 10.0 miles South 10.4 mph - N/A   Overcast
2:53 PM 44.1°F 37.9°F 79% 30.35 in 10.0 miles South 6.9 mph - N/A   Overcast
3:53 PM 44.1°F 37.9°F 79% 30.35 in 10.0 miles SSE 8.1 mph - N/A   Overcast
4:29 PM 44.6°F 39.2°F 81% 30.32 in 10.0 miles South 5.8 mph - N/A   Overcast
4:53 PM 44.1°F 39.0°F 82% 30.35 in 10.0 miles SSE 4.6 mph - N/A   Overcast
5:53 PM 44.1°F 39.0°F 82% 30.35 in 10.0 miles SSE 4.6 mph - N/A   Overcast
6:53 PM 43.0°F 39.0°F 86% 30.35 in 10.0 miles SSE 5.8 mph - N/A   Overcast
7:53 PM 43.0°F 39.9°F 89% 30.35 in 10.0 miles SSE 3.5 mph - N/A   Overcast
8:53 PM 43.0°F 39.9°F 89% 30.35 in 10.0 miles South 4.6 mph - N/A   Overcast
9:53 PM 43.0°F 39.9°F 89% 30.35 in 9.0 miles Calm Calm - N/A   Overcast
10:28 PM 42.8°F 41.0°F 93% 30.33 in 4.0 miles South 4.6 mph - N/A   Overcast
10:53 PM 43.0°F 41.0°F 93% 30.35 in 7.0 miles SE 4.6 mph - N/A   Overcast
11:26 PM 42.8°F 41.0°F 93% 30.33 in 10.0 miles South 3.5 mph - N/A   Overcast
11:53 PM 44.1°F 41.0°F 89% 30.35 in 10.0 miles SSE 6.9 mph - N/A   Overcast
Moon Phase
Feb. 11 Feb. 17 Feb. 25 Mar. 04 Mar. 11
Sunrise:07:24 AM (PST) Moon Rise:07:39 AM (PST)2/11
Sunset:05:25 PM (PST) Moon Set:07:43 PM (PST)2/11

Copyright © 2014 The Weather Underground, Inc.